Starlink 11714

operational
NORAD ID: 64134 Int'l Des: 2025-111 Owner: SPXS Country: US Constellation: starlink
LEOCIRCULAR

About Starlink 11714

Description loading...

Live Position

Loading 3D Globe...

Upcoming Passes

Altitude History

Altitude vs Time

uPlot chart will show altitude changes over time

Two-Line Element Set

1 64134U 25111M 25307.60283073 .00181123 00000-0 13825-2 0 9991
2 64134 42.9993 13.4360 0001516 301.9707 58.1014 15.70873396 26818
Epoch: Nov 3, 2025 • Age: 16 hours

Current Status

Altitude 362.4 km
Velocity 7.69 km/s
Sub-Earth Point -26.84°S, 78.3°E
Launch Date May 24, 2025
Age 0.4 years
Type internet

Technical Details

Classification Payload
Mass 960.00 kg
Dry Mass 910.00 kg
Total Mass 960.00 kg
Length 0.30 m
Diameter 4.10 m
Span 29.00 m
Shape Box + pan
Manufacturer SPXS
Bus Type Starlink V2MD
Phase Status In Orbit
Owner/State SPXS/US

Large Constellations

Loading constellations...